Flag Weather past 2 weeks in Tegucigalpa, Honduras

Now
73 °F

Scattered showers. Scattered clouds.


Feels Like: 73 °F
Forecast: 66 / 81 °F
Wind: 12 mph from North

Location: Tegucigalpa Airport

Current Time: Oct 30, 2014 at 9:36:02 AM

Latest Report: Oct 30, 2014 at 9:00 AM


Visibility: 5 mi

Pressure: 30.07 "Hg

Humidity: 83%

Dew point: 68 °F

Location of TegucigalpaLocation

Historic Weather in Tegucigalpa — Graph

°F

Tegucigalpa temperature yesterday

Maximum temperature yesterday: 81 °F (at 11:00 AM)
Minimum temperature yesterday: 66 °F (at 1:00 AM)
Average temperature yesterday: 72 °F

Past Weeks' High & Low Weather Summary

 TemperatureHumidityPressure
High88 °F (Oct 24, 12:00 PM)100% (Oct 15, 8:00 AM)30.15 "Hg (Oct 15, 8:00 AM)
Low61 °F (Oct 24, 5:00 AM)45% (Oct 24, 1:00 PM)29.89 "Hg (Oct 20, 3:00 PM)
Average71 °F85%30.05 "Hg
* Reported Oct 15 8:00 AM — Oct 30 8:00 AM, Tegucigalpa, Weather by CustomWeather, © 2014

Note: Actual official high and low records may vary slightly from our data, if they occured in-between our weather recording intervals... More about our weather records

Advertising

Tegucigalpa weather history for previous 24 hours

 ConditionsComfort  
Time TempWeatherWind HumidityBarometerVisibility
8:00 AM
Oct 30
70 °FScattered clouds.7 mph94%30.07 "Hg4 mi
7:00 AM68 °FFog.5 mph100%30.04 "Hg3 mi
6:00 AM66 °FFog.7 mph100%30.04 "Hg2 mi
5:00 AM66 °FPassing clouds.5 mph100%30.01 "HgN/A
4:00 AM66 °FPassing clouds.No wind100%30.01 "HgN/A
3:00 AM66 °FPassing clouds.No wind100%30.01 "HgN/A
2:00 AM66 °FMild.N/A94%30.01 "HgN/A
1:00 AM68 °FPassing clouds.No wind100%30.04 "HgN/A
12:00 AM68 °FPassing clouds.No wind100%30.07 "HgN/A
11:00 PM
Oct 29
68 °FPassing clouds.No wind100%30.07 "HgN/A
10:00 PM68 °FPartly cloudy.No wind100%30.09 "HgN/A
9:00 PM70 °FLight rain. Partly cloudy.6 mph94%30.07 "Hg4 mi
8:00 PM72 °FPassing clouds.9 mph88%30.04 "HgN/A
7:00 PM72 °FPassing clouds.9 mph88%30.04 "HgN/A
6:00 PM72 °FPartly cloudy.9 mph88%30.01 "HgN/A
5:00 PM73 °FDrizzle. Partly sunny.12 mph78%30.01 "Hg5 mi
4:00 PM75 °FScattered showers. Partly sunny.9 mph74%29.98 "Hg5 mi
3:00 PM79 °FScattered clouds.12 mph70%30.01 "HgN/A
2:00 PM77 °FPartly sunny.12 mph69%30.01 "HgN/A
1:00 PM77 °FPartly sunny.9 mph69%30.04 "HgN/A
12:00 PM77 °FPartly sunny.12 mph69%30.07 "HgN/A
11:00 AM81 °FPartly sunny.8 mph62%N/AN/A
10:00 AM75 °FPartly sunny.3 mph65%30.09 "HgN/A
9:00 AM77 °FScattered clouds.9 mph83%30.12 "HgN/A
Weather by CustomWeather, © 2014

See weather overviewHow to use our weather pages